Regional Weather Roundup
Issued by NWS

Home | Current Version | Previous Version | Text Only | Print | Product List | Glossary On
Versions: 1 2 3 4 5 6 7 8 9 10 11 12 13 14 15 16 17 18 19 20 21 22 23 24 25 26 27 28 29 30 31 32 33 34 35 36 37 38 39 40 41 42 43 44 45 46 47 48 49 50
000
ASUS43 KLMK 010510
RWRKY
KENTUCKY REGIONAL WEATHER ROUNDUP
NATIONAL WEATHER SERVICE LOUISVILLE KY
100 AM EDT FRI AUG 01 2014

NOTE "FAIR" INDICATES FEW OR NO CLOUDS BELOW 12,000 FEET
WITH NO SIGNIFICANT WEATHER AND/OR OBSTRUCTIONS TO VISIBILITY.

KYZ001>023-026-027-061>063-070>075-010600-
WESTERN AND SOUTH CENTRAL KENTUCKY

CITY           SKY/WX    TMP DP  RH WIND       PRES   REMARKS
PADUCAH        CLEAR     65  62  90 CALM      30.08R
HENDERSON      PTCLDY    64  59  82 SW6       30.08R
OWENSBORO      CLEAR     66  61  84 CALM      30.09R
HOPKINSVILLE   PTCLDY    71  61  70 NW5       30.08R
BOWLING GREEN  CLEAR     68  60  75 CALM      30.08S
GLASGOW        MOCLDY    65  59  82 CALM      30.09R
$$

KYZ024-025-028>034-038-045-046-053-010600-
NORTH CENTRAL KENTUCKY

CITY           SKY/WX    TMP DP  RH WIND       PRES   REMARKS
LOUISVILLE/SDF PTCLDY    72  60  66 CALM      30.09R
LOUISVILLE/LOU CLEAR     68  59  73 CALM      30.10R
FORT KNOX      PTCLDY    62  60  91 CALM      30.09R
$$

KYZ035>037-039>044-047>052-055>060-089>105-010600-
NORTHEAST KENTUCKY

CITY           SKY/WX    TMP DP  RH WIND       PRES   REMARKS
LEXINGTON      PTCLDY    68  59  73 CALM      30.11S
COVINGTON      CLEAR     67  60  78 CALM      30.11R
FRANKFORT      CLEAR     63  60  90 CALM      30.10R
$$

KYZ054-064>069-076>088-106>120-010600-
SOUTHEAST KENTUCKY

CITY           SKY/WX    TMP DP  RH WIND       PRES   REMARKS
JACKSON        MOCLDY    69  60  73 E3        30.13S
LONDON         PTCLDY    66  60  81 CALM      30.12S
SOMERSET       PTCLDY    63  63 100 CALM      30.12S
MIDDLESBORO    MOCLDY    64  62  93 CALM      30.13S
MONTICELLO     MOCLDY    61  60  96 CALM      30.12S FOG
$$




USA.gov is the U.S. government's official web portal to all federal, state and local government web resources and services.